Location: Unspecified
(0.0000°N, 0.0000°E)
Time: 17:48:10
(UTC+00:00)

STARLINK 1027 - Pass Details

Date: 19 January 2020
Orbit: 401 x 403 km, 53.0° (Epoch: 18 January)

Event Time Altitude Azimuth Distance (km) Brightness Sun altitude
Rises 16:59:07 0° 323° (NW) 2,296 7.0 16.6°
Reaches altitude 10° 17:01:11 10° 322° (NW) 1,441 6.0 16.2°
Drops below altitude 10° 17:07:38 10° 150° (SSE) 1,449 5.7 14.7°
Enters shadow 17:32:33 -51° 141° (SE) 10,437 9.9 8.8°
Exits shadow 17:47:31 -79° 117° (ESE) 12,932 10.4 5.3°
Maximum altitude 04:38:03 58° 124° (SE) 471 3.5 -21.6°
